Location: Dębica
(50.0508°N, 21.4101°E)
Time: 22:15:22
(UTC+01:00)

ISS - Visible Passes

Search period start: 19 January 2018 00:00
Search period end: 29 January 2018 00:00
Orbit: 402 x 407 km, 51.6° (Epoch: 20 January)

Date Brightness Start Highest point End Pass type
(mag) Time Alt. Az. Time Alt. Az. Time Alt. Az.
25 Jan -1.3 18:12:59 10° S 18:13:26 12° SSE 18:13:26 12° SSE visible
26 Jan -1.2 18:55:22 10° SW 18:56:11 16° SW 18:56:11 16° SW visible
27 Jan -2.5 18:03:25 10° SSW 18:06:11 26° SE 18:06:11 26° SE visible
28 Jan -1.8 17:11:50 10° S 17:13:59 16° SE 17:16:06 10° E visible
28 Jan -2.3 18:46:46 10° WSW 18:48:46 34° SW 18:48:46 34° SW visible
